Regional Weather Roundup
Issued by NWS

Home | Current Version | Previous Version | Graphics & Text | Print | Product List | Glossary On
Versions: 1 2 3 4 5 6 7 8 9 10 11 12 13 14 15 16 17 18 19 20 21 22 23 24 25 26 27 28 29 30 31 32 33 34 35 36 37 38 39 40 41 42 43 44 45 46 47 48 49 50
000
ASUS45 KCYS 282010
RWRWY

WYOMING REGIONAL WEATHER ROUNDUP
NATIONAL WEATHER SERVICE CHEYENNE WY
200 PM MDT SAT MAY 28 2016

NOTE:  "FAIR" INDICATES FEW OR NO CLOUDS BELOW 12,000 FEET
WITH NO SIGNIFICANT WEATHER AND/OR OBSTRUCTIONS TO VISIBILITY.

WYZ001-282100-
YELLOWSTONE NATIONAL PARK

CITY           SKY/WX    TMP DP  RH WIND       PRES   REMARKS
LK YELLOWSTONE   N/A     47  24  40 VRB7      30.14R
W YELLOWSTONE  NOT AVBL

$$
WYZ002>013-054>058-071-098>099-282100-
NORTHERN WYOMING

CITY           SKY/WX    TMP DP  RH WIND       PRES   REMARKS
JACKSON        SUNNY     59  21  23 SW16G23   30.07S
CODY           FAIR      63  43  48 CALM      29.98S
GREYBULL       PTSUNNY   65  43  44 VRB3      29.95F
WORLAND        FAIR      66  40  38 N6        29.95F
SHERIDAN       PTSUNNY   64  45  49 MISG      29.99S
BUFFALO        CLOUDY    57  45  64 N12G20    30.01S
GILLETTE       PTSUNNY   64  45  49 NW13      29.96S
HULETT         MOCLDY    64  45  48 W7        29.96S
NEWCASTLE      FAIR      70  36  28 CALM      29.93S

$$
WYZ014>020-022>026-101>103-282100-
CENTRAL WYOMING

CITY           SKY/WX    TMP DP  RH WIND       PRES   REMARKS
BIG PINEY      FAIR      59  29  31 NW8G18    30.09F
PINEDALE       CLOUDY    55  28  35 NW6       30.09F
DUBOIS         FAIR      59  14  17 W20G31    30.04S
LANDER         FAIR      67  30  25 VRB5      29.97F
RIVERTON       FAIR      65  29  25 CALM      29.98F
CASPER         FAIR      62  38  40 VRB5      29.98F
DOUGLAS          N/A    N/A N/A N/A MISG      29.99R

$$
WYZ021-027>030-104>119-282100-
SOUTHERN WYOMING

CITY           SKY/WX    TMP DP  RH WIND       PRES   REMARKS
EVANSTON       FAIR      61  34  36 W22G29    30.11S
KEMMERER         N/A     59  34  38 W14G28    30.12S
FORT BRIDGER   CLEAR     63  34  34 W20       30.13F
ROCK SPRINGS   PTSUNNY   63  30  28 W21G31    30.08F
DIXON          MOCLDY    58  35  43 N10G24    30.13F
RAWLINS        PTSUNNY   62  30  29 W14G23    30.08F
SARATOGA       CLOUDY    54  37  54 SW18      30.12S
LARAMIE        LGT RAIN  56  31  38 NW14      30.09R
CHEYENNE       PTSUNNY   69  30  23 W16G24    30.02F
TORRINGTON     FAIR      70  40  33 CALM      29.92F
PINE BLUFFS    MOCLDY    64  41  42 S14G20    30.01S

$$



USA.gov is the U.S. government's official web portal to all federal, state and local government web resources and services.